STARLINK-32896, 62959

Orbit data source: Space-Track

STARLINK-32896, 62959 is a payload satellite owned by SpaceX/Seattle (US) in LEO that was launched on Tue, 11 Feb 2025 UTC via an FALCON 9 launch vehicle from the Air Force Western Test Range (AFWTR). Payload-class satellites include a variety of spacecraft equipped with specific instruments for various scientific and technological missions. These include communications satellites like Starlink; space stations such as the ISS; scientific satellites like the Hubble; Earth observation satellites from companies like Planet Labs, Umbra, and HawkEye 360; GPS; miniature CubeSats for education and research; and military/defense satellites.

Loading next visibility...
Identifier
62959, 2025-029M
Orbit
LEO
Country
Flag of USUS
Related business
Manufacturer
SpaceX/Seattle
Mission
Operational Commercial Communications
Bus & Motor
STARLINK V2M, Unknown motor
Mass
730 kg wet, ~700 kg dry
Launch date (UTC)
2025-02-11 (1 year ago)
Launch vehicle
FALCON 9
Launch site
Air Force Western Test Range (AFWTR)
Object type
Payload
Rocket body
Debris
Shape & HBR
Box + 2 Pan, 17.7 m
Radar Cross Section
33.884 m², Large (>1 m²)

Expand to show TLE details & history
Last TLE update: 16 hours ago

TLE from 16 hours ago
0 STARLINK-32896
1 62959U 25029M   26171.17385464  .00009587  00000-0  33520-3 0  9999
2 62959  53.1607 116.7599 0001283 114.7484 245.3650 15.30218220 77009
Epoch: 2026-06-20T04:10Z
TLE epoch observation values (Epoch: 2026-06-20T04:10:21.040Z)
Latitude
-0.00008°
Longitude
145.77991°
Altitude
476.427 km
Speed
7.629 km/s
True Right ascension
07h 47m 02s
True Declination
0° 00' 00"
Sunlit
Object was in daylight at epoch
Visualization orbit readout
Latitude
Unknown
Longitude
Unknown
Altitude
Unknown
Speed
Unknown
Apparent Right ascension
Unknown
Apparent Declination
Unknown
Sunlit
N/A
Visualization observer readout
Local Sidereal Time
07:17:27
Azimuth
Unknown
Elevation
Unknown
Doppler factor
Unknown
Orbital elements
Apogee altitude
476.296 km
Perigee altitude
474.538 km
Semi-major axis
6,853.554 km
Eccentricity
0.00013
Inclination
53.1607°
RAAN
116.7599°
Arg. of periapsis
114.7484°
True anomaly
245.35164°
Mean anomaly
245.365°
Eccentric anomaly
245.35832°
Mean motion
3.82533 °/min
Orbital period
94.11 mins
BSTAR
0.0003352
Loading maneuver chart data...
Computing Atmospheric mass density...
Loading historical data...
Loading historical data...
Loading historical data...
Loading historical data...
Loading historical data...
Loading historical data...
Loading historical data...

Documentation

Showing up to 5 results
|